Regional Weather Roundup
Issued by NWS

Home | Current Version | Previous Version | Graphics & Text | Print | Product List | Glossary On
Versions: 1 2 3 4 5 6 7 8 9 10 11 12 13 14 15 16 17 18 19 20 21 22 23 24 25 26 27 28 29 30 31 32 33 34 35 36 37 38 39 40 41 42 43 44 45 46 47 48 49 50
000
ASUS43 KDMX 261201
RWRIA

WEATHER ROUNDUP FOR IOWA
NATIONAL WEATHER SERVICE DES MOINES IA
700 AM CDT WED JUL 26 2017

NOTE: "FAIR" INDICATES FEW OR NO CLOUDS BELOW 12,000 FEET WITH NO
SIGNIFICANT WEATHER AND/OR OBSTRUCTIONS TO VISIBILITY.

* - THESE STATIONS ARE NOT NWS STATIONS...THUS NOT UNDER NWS
QUALITY CONTROL.  THEY ALSO DO NOT REPORT WEATHER SUCH
AS PRECIPITATION OR FOG.

IAZ001>003-012>014-020>022-031>034-043>046-261300-
   NORTHWEST IOWA

CITY           SKY/WX    TMP DP  RH WIND       PRES   REMARKS
CARROLL *      CLOUDY    73  73 100 CALM      29.99R FOG
CHEROKEE *     RAIN      71  71 100 E3        29.99F
DENISON *      LGT RAIN  75  73  94 SW3       30.01R
ORANGE CITY *  LGT RAIN  72  72 100 S5        29.99R
SHELDON *      CLOUDY    70  70 100 E3        30.00R
SIOUX CITY     LGT RAIN  71  71 100 E6        29.94F
6HR MIN TEMP:  71; 6HR MAX TEMP:  82; 6HR PCP:  0.64;

SPENCER        LGT RAIN  72  70  93 NE5       30.01R
6HR MIN TEMP:  72; 6HR MAX TEMP:  79; 6HR PCP:  0.04;

STORM LAKE *   RAIN      70  70 100 NW13      30.01S
$$

IAZ055>058-069>071-079>083-090>094-261300-
   SOUTHWEST IOWA

CITY           SKY/WX    TMP DP  RH WIND       PRES   REMARKS
ATLANTIC *     CLOUDY    77  73  88 W10       30.00R
AUDUBON *      CLOUDY    77  72  83 SW8G24    30.01R
CLARINDA *     CLOUDY    77  73  88 S5        29.98F
COUNCIL BLFS * RAIN      73  73 100 S5        30.01R
CRESTON *      CLOUDY    73  70  88 S10       30.00F
HARLAN  *      RAIN      75  75 100 SW5G12    30.03R
LAMONI         MOCLDY    73  69  87 S7        30.01F
6HR MIN TEMP:  73; 6HR MAX TEMP:  77;

RED OAK *      CLOUDY    79  73  83 SW8       29.99R HX  82
SHENANDOAH *   CLOUDY    77  73  88 W9        30.00R
$$

IAZ047>049-059>061-072>074-084-261300-
   CENTRAL IOWA

CITY           SKY/WX    TMP DP  RH WIND       PRES   REMARKS
AMES           CLOUDY    71  71 100 SE5       30.00R
6HR MIN TEMP:  71; 6HR MAX TEMP:  75;

ANKENY *       CLOUDY    73  70  88 CALM      30.00S
BOONE *        MOCLDY    73  70  88 S3        29.99S
CHARITON *     CLOUDY    73  70  88 S8        30.01S
DES MOINES     CLOUDY    75  69  81 S7        29.99R
6HR MIN TEMP:  75; 6HR MAX TEMP:  79;

GRINNELL*      MOCLDY    71  68  90 S7        30.03R
KNOXVILLE *    CLOUDY    73  70  88 SE5       29.99S
MARSHALLTOWN   CLOUDY    72  69  90 S7        30.00R
6HR MIN TEMP:  71; 6HR MAX TEMP:  76;

NEWTON *       CLOUDY    70  68  94 S5        30.01S
PELLA *          N/A     74  68  83 S3        30.02R
$$

IAZ004>006-015-016-023>025-035-036-261300-
   NORTH CENTRAL IOWA

CITY           SKY/WX    TMP DP  RH WIND       PRES   REMARKS
ALGONA *       CLOUDY    75  75 100 S5        29.99R
CLARION *      CLOUDY    72  72 100 CALM      30.01R
ESTHERVILLE    LGT RAIN  71  70  96 N7        30.02R
6HR MIN TEMP:  71; 6HR MAX TEMP:  75; 6HR PCP:  0.01;

FORT DODGE *   CLOUDY    73  70  88 S5        30.00S
MASON CITY     CLOUDY    71  69  93 SE5       30.03R FOG
6HR MIN TEMP:  70; 6HR MAX TEMP:  73;

FOREST CITY *  MOCLDY    73  72  94 S6        30.00F FOG
WEBSTER CITY * CLOUDY    72  72 100 S3        29.98S FOG
IOWA FALLS *     N/A     72  69  90 SE5       30.02S
$$

IAZ007>011-017>019-026>030-037>042-050>054-066-261300-
   NORTHEAST IOWA

CITY           SKY/WX    TMP DP  RH WIND       PRES   REMARKS
CHARLES CITY * CLOUDY    70  70 100 S6        30.03R
DECORAH *      CLOUDY    70  68  94 S7        30.01S
DUBUQUE        MOSUNNY   68  66  93 S9        30.05S FOG
6HR MIN TEMP:  67; 6HR MAX TEMP:  69;

MONTICELLO *   CLOUDY    70  68  94 CALM      30.04R
OELWEIN *      MOSUNNY   72  72 100 S8        30.03S
WATERLOO       PTSUNNY   71  68  90 S5        30.01R
6HR MIN TEMP:  71; 6HR MAX TEMP:  76;

$$

IAZ064-065-067-068-078-261300-
   EAST CENTRAL IOWA

CITY           SKY/WX    TMP DP  RH WIND       PRES   REMARKS
DAVENPORT      MOSUNNY   72  67  84 S12       30.06S
6HR MIN TEMP:  70; 6HR MAX TEMP:  73;

IOWA CITY      PTSUNNY   72  68  87 SE5       30.04S
6HR MIN TEMP:  70; 6HR MAX TEMP:  73;

MUSCATINE *    CLOUDY    72  68  88 S5        30.04S
QUAD CITIES    MOSUNNY   72  66  81 S6        30.04S
6HR MIN TEMP:  70; 6HR MAX TEMP:  72;

$$

IAZ062-063-075>077-085>089-095>099-261300-
   SOUTHEAST IOWA

CITY           SKY/WX    TMP DP  RH WIND       PRES   REMARKS
BURLINGTON     CLOUDY    72  70  93 S8        30.04S
6HR MIN TEMP:  72; 6HR MAX TEMP:  75;

FAIRFIELD *    PTCLDY    72  68  88 SE8       30.03R
FORT MADISON * MOSUNNY   72  70  94 S8        30.05R
KEOKUK *       PTSUNNY   72  70  94 SE3       30.03S
OSKALOOSA *      N/A     70  68  95 S3        30.03R
OTTUMWA        CLOUDY    73  71  93 S9        30.02R
6HR MIN TEMP:  73; 6HR MAX TEMP:  76;

WASHINGTON *     N/A     70  70 100 S7        30.04S
$$

ABBREVIATIONS USED IN REMARKS
   TC - TEMPERATURES IN CELSIUS
  WCI - WIND CHILL INDEX
   HX - HEAT INDEX
  VSB - VISIBILITY
$$




USA.gov is the U.S. government's official web portal to all federal, state and local government web resources and services.